This is the latest recevied weather packets stored in our database for station/object SP6PWT-13. If no packets are shown the sender has not sent any weather packets the latest 10 day(s).
| Time | Temp. | Humidity | Pressure | Rain* | Wind** | Luminosity | Snow |
|---|---|---|---|---|---|---|---|
| 1777650790 | 21.11° C | 34% | 1008.8 hPa | 0 mm | - | 164 W/m² | - |
| 1777650490 | 21.67° C | 34% | 1008.8 hPa | 0 mm | - | 177 W/m² | - |
| 1777650179 | 21.67° C | 34% | 1008.8 hPa | 0 mm | - | 191 W/m² | - |
| 1777649879 | 21.11° C | 34% | 1008.8 hPa | 0 mm | - | 205 W/m² | - |
| 1777649579 | 21.67° C | 34% | 1008.8 hPa | 0 mm | - | 220 W/m² | - |
| 1777649268 | 21.67° C | 34% | 1008.8 hPa | 0 mm | - | 233 W/m² | - |
| 1777648967 | 21.11° C | 34% | 1008.9 hPa | 0 mm | - | 246 W/m² | - |
| 1777648667 | 21.11° C | 34% | 1008.9 hPa | 0 mm | - | 259 W/m² | - |
| 1777648366 | 21.67° C | 33% | 1008.9 hPa | 0 mm | - | 271 W/m² | - |
| 1777648066 | 21.11° C | 34% | 1008.8 hPa | 0 mm | - | 282 W/m² | - |
| 1777647765 | 21.11° C | 33% | 1009.1 hPa | 0 mm | - | 295 W/m² | - |
| 1777647465 | 21.11° C | 33% | 1009.2 hPa | 0 mm | - | 294 W/m² | - |
| 1777647165 | 21.67° C | 33% | 1009.1 hPa | 0 mm | - | 318 W/m² | - |
| 1777646864 | 21.11° C | 33% | 1009.1 hPa | 0 mm | - | 331 W/m² | - |
| 1777646554 | 21.67° C | 32% | 1009.2 hPa | 0 mm | - | 342 W/m² | - |
| 1777646254 | 21.67° C | 33% | 1009.1 hPa | 0 mm | - | 349 W/m² | - |
| 1777645943 | 21.67° C | 34% | 1009.1 hPa | 0 mm | - | 357 W/m² | - |
| 1777645643 | 21.11° C | 33% | 1009.2 hPa | 0 mm | - | 368 W/m² | - |
| 1777645342 | 21.11° C | 34% | 1009.3 hPa | 0 mm | - | 379 W/m² | - |
| 1777645031 | 21.67° C | 33% | 1009.2 hPa | 0 mm | - | 388 W/m² | - |
| 1777644731 | 21.67° C | 34% | 1009.2 hPa | 0 mm | - | 397 W/m² | - |
| 1777644431 | 21.11° C | 34% | 1009.3 hPa | 0 mm | - | 405 W/m² | - |
| 1777644130 | 21.11° C | 34% | 1009.4 hPa | 0 mm | - | 415 W/m² | - |
| 1777643830 | 21.67° C | 34% | 1009.4 hPa | 0 mm | - | 426 W/m² | - |
| 1777643529 | 21.67° C | 33% | 1009.2 hPa | 0 mm | - | 433 W/m² | - |
* Rain latest hour (hover to see other rain measurements)
** Current wind speed in m/s (hover to see current wind gust speed)